• En España
  • Lista de países
  • Para 7 días
  • Temperatura del agua
  • Mapa Satelital
  • El tiempo en el mapa
  • Informadores
  • user-avatar
    Iniciar sesión

    Tiempo cada hora Linz

    Hoy, 22 Agosto, Martes

    Tiempo Temperatura Precipitaciones Viento Presión Humedad
    00:00 +12°C° 0 mm 1 mps 739 mmHg 86%
    01:00 +12°C° 0 mm 1 mps 738 mmHg 85%
    02:00 +12°C° 0 mm 1 mps 738 mmHg 86%
    03:00 +11°C° 0 mm 1 mps 738 mmHg 87%
    04:00 +11°C° 0 mm 1 mps 738 mmHg 88%
    05:00 +12°C° 0 mm 1 mps 738 mmHg 85%
    06:00 +13°C° 0 mm 1 mps 738 mmHg 82%
    07:00 +14°C° 0 mm 0 mps 738 mmHg 77%
    08:00 +16°C° 0 mm 1 mps 738 mmHg 69%
    09:00 +19°C° 0 mm 1 mps 738 mmHg 62%
    10:00 +21°C° 0 mm 1 mps 738 mmHg 55%
    11:00 +22°C° 0 mm 1 mps 737 mmHg 53%
    12:00 +21°C° 0 mm 2 mps 737 mmHg 50%
    13:00 +23°C° 0 mm 2 mps 736 mmHg 48%
    14:00 +23°C° 0 mm 2 mps 736 mmHg 50%
    15:00 +23°C° 0 mm 2 mps 736 mmHg 51%
    16:00 +23°C° 0 mm 2 mps 735 mmHg 52%
    17:00 +20°C° 0 mm 2 mps 735 mmHg 60%
    18:00 +19°C° 0 mm 1 mps 735 mmHg 68%
    19:00 +18°C° 0 mm 1 mps 735 mmHg 75%
    20:00 +16°C° 0 mm 1 mps 736 mmHg 78%
    21:00 +15°C° 0 mm 1 mps 736 mmHg 80%
    22:00 +14°C° 0 mm 1 mps 736 mmHg 83%
    23:00 +14°C° 0 mm 1 mps 736 mmHg 84%

    Mañana, 23 Agosto, Miércoles

    Tiempo Temperatura Precipitaciones Viento Presión Humedad
    00:00 +13°C° 0 mm 1 mps 736 mmHg 86%
    01:00 +13°C° 0 mm 1 mps 736 mmHg 87%
    02:00 +13°C° 0 mm 1 mps 736 mmHg 89%
    03:00 +12°C° 0 mm 1 mps 736 mmHg 90%
    04:00 +12°C° 0 mm 1 mps 736 mmHg 91%
    05:00 +13°C° 0 mm 1 mps 736 mmHg 88%
    06:00 +14°C° 0 mm 1 mps 736 mmHg 84%
    07:00 +14°C° 0 mm 0 mps 736 mmHg 80%
    08:00 +19°C° 0 mm 1 mps 736 mmHg 73%
    09:00 +21°C° 0 mm 1 mps 736 mmHg 65%
    10:00 +23°C° 0 mm 1 mps 736 mmHg 57%
    11:00 +24°C° 0 mm 1 mps 736 mmHg 54%
    12:00 +25°C° 0 mm 1 mps 736 mmHg 51%
    13:00 +26°C° 0 mm 1 mps 736 mmHg 48%
    14:00 +26°C° 0 mm 1 mps 735 mmHg 49%
    15:00 +26°C° 0 mm 1 mps 735 mmHg 50%
    16:00 +26°C° 0 mm 1 mps 735 mmHg 52%
    17:00 +24°C° 0 mm 1 mps 735 mmHg 60%
    18:00 +19°C° 0 mm 0 mps 735 mmHg 69%
    19:00 +17°C° 0 mm 0 mps 735 mmHg 78%
    20:00 +17°C° 0 mm 0 mps 735 mmHg 80%
    21:00 +18°C° 0 mm 1 mps 735 mmHg 81%
    22:00 +16°C° 0 mm 1 mps 736 mmHg 83%
    23:00 +16°C° 0 mm 1 mps 736 mmHg 84%

    Pasado mañana, 24 Agosto, Jueves

    Tiempo Temperatura Precipitaciones Viento Presión Humedad
    00:00 +16°C° 0 mm 1 mps 736 mmHg 85%
    01:00 +15°C° 0 mm 1 mps 736 mmHg 86%
    02:00 +15°C° 0 mm 1 mps 735 mmHg 86%
    03:00 +15°C° 0 mm 1 mps 735 mmHg 87%
    04:00 +15°C° 0 mm 1 mps 735 mmHg 87%
    05:00 +16°C° 0 mm 1 mps 735 mmHg 84%
    06:00 +18°C° 0 mm 1 mps 735 mmHg 81%
    07:00 +19°C° 0 mm 1 mps 736 mmHg 77%
    08:00 +22°C° 0 mm 1 mps 736 mmHg 71%
    09:00 +24°C° 0 mm 1 mps 736 mmHg 64%
    10:00 +27°C° 0 mm 1 mps 736 mmHg 57%
    11:00 +27°C° 0 mm 1 mps 736 mmHg 55%
    12:00 +28°C° 0 mm 2 mps 735 mmHg 54%
    13:00 +29°C° 0 mm 2 mps 735 mmHg 52%
    14:00 +29°C° 0 mm 2 mps 735 mmHg 54%
    15:00 +29°C° 0 mm 2 mps 735 mmHg 55%
    16:00 +29°C° 0 mm 2 mps 735 mmHg 57%
    17:00 +27°C° 0 mm 1 mps 735 mmHg 67%
    18:00 +25°C° 0 mm 1 mps 735 mmHg 76%
    19:00 +21°C° 0 mm 0 mps 735 mmHg 86%
    20:00 +22°C° 0,2 mm 1 mps 735 mmHg 87%
    21:00 +22°C° 0,2 mm 1 mps 736 mmHg 88%
    22:00 +22°C° 0,2 mm 1 mps 736 mmHg 89%
    23:00 +21°C° 0,1 mm 1 mps 736 mmHg 90%

    25 Agosto, Viernes

    Tiempo Temperatura Precipitaciones Viento Presión Humedad
    00:00 +21°C° 0,1 mm 1 mps 736 mmHg 90%
    01:00 +21°C° 0,1 mm 1 mps 736 mmHg 91%
    02:00 +20°C° 0 mm 1 mps 736 mmHg 92%
    03:00 +20°C° 0 mm 1 mps 736 mmHg 92%
    04:00 +19°C° 0 mm 1 mps 736 mmHg 92%
    05:00 +20°C° 0 mm 1 mps 736 mmHg 90%
    06:00 +21°C° 0 mm 1 mps 736 mmHg 88%
    07:00 +20°C° 0 mm 0 mps 736 mmHg 86%
    08:00 +24°C° 0 mm 1 mps 736 mmHg 77%
    09:00 +26°C° 0 mm 1 mps 736 mmHg 68%
    10:00 +28°C° 0 mm 1 mps 736 mmHg 59%
    11:00 +29°C° 0 mm 1 mps 736 mmHg 56%
    12:00 +30°C° 0 mm 1 mps 736 mmHg 52%
    13:00 +31°C° 0 mm 1 mps 736 mmHg 48%
    14:00 +31°C° 0 mm 1 mps 736 mmHg 49%
    15:00 +31°C° 0 mm 1 mps 735 mmHg 50%
    16:00 +30°C° 0 mm 1 mps 735 mmHg 52%
    17:00 +28°C° 0 mm 1 mps 735 mmHg 59%
    18:00 +26°C° 0 mm 1 mps 735 mmHg 67%
    19:00 +22°C° 0 mm 0 mps 735 mmHg 74%
    20:00 +23°C° 0 mm 1 mps 735 mmHg 76%
    21:00 +23°C° 0 mm 1 mps 736 mmHg 77%
    22:00 +22°C° 0 mm 1 mps 736 mmHg 79%
    23:00 +21°C° 0 mm 1 mps 736 mmHg 80%

    26 Agosto, Sábado

    Tiempo Temperatura Precipitaciones Viento Presión Humedad
    00:00 +21°C° 0 mm 1 mps 735 mmHg 81%
    01:00 +21°C° 0 mm 1 mps 735 mmHg 82%
    02:00 +20°C° 0 mm 1 mps 735 mmHg 82%
    03:00 +20°C° 0 mm 1 mps 735 mmHg 83%
    04:00 +20°C° 0 mm 1 mps 735 mmHg 83%
    05:00 +21°C° 0 mm 1 mps 735 mmHg 81%
    06:00 +22°C° 0 mm 1 mps 735 mmHg 79%
    07:00 +23°C° 0 mm 1 mps 735 mmHg 76%
    08:00 +25°C° 0 mm 1 mps 736 mmHg 68%
    09:00 +27°C° 0 mm 1 mps 736 mmHg 61%
    10:00 +30°C° 0 mm 1 mps 736 mmHg 53%
    11:00 +31°C° 0 mm 1 mps 735 mmHg 50%
    12:00 +32°C° 0 mm 1 mps 735 mmHg 48%
    13:00 +34°C° 0 mm 2 mps 735 mmHg 45%
    14:00 +34°C° 0 mm 2 mps 735 mmHg 47%
    15:00 +32°C° 0 mm 2 mps 734 mmHg 48%
    16:00 +32°C° 0 mm 2 mps 734 mmHg 50%
    17:00 +30°C° 0 mm 1 mps 734 mmHg 57%
    18:00 +28°C° 0 mm 1 mps 734 mmHg 64%
    19:00 +26°C° 0 mm 1 mps 734 mmHg 72%
    20:00 +25°C° 0 mm 1 mps 734 mmHg 72%
    21:00 +24°C° 0 mm 1 mps 734 mmHg 73%
    22:00 +23°C° 0 mm 1 mps 735 mmHg 74%
    23:00 +23°C° 0 mm 1 mps 734 mmHg 74%

    27 Agosto, Domingo

    Tiempo Temperatura Precipitaciones Viento Presión Humedad
    00:00 +22°C° 0 mm 1 mps 734 mmHg 75%
    01:00 +22°C° 0 mm 1 mps 734 mmHg 75%
    02:00 +22°C° 0 mm 1 mps 734 mmHg 75%
    03:00 +21°C° 0 mm 1 mps 734 mmHg 76%
    04:00 +21°C° 0 mm 1 mps 734 mmHg 76%
    05:00 +22°C° 0,1 mm 1 mps 734 mmHg 75%
    06:00 +23°C° 0,1 mm 1 mps 734 mmHg 74%
    07:00 +23°C° 0,1 mm 1 mps 735 mmHg 73%
    08:00 +26°C° 0 mm 1 mps 735 mmHg 66%
    09:00 +26°C° 0 mm 0 mps 735 mmHg 59%
    10:00 +28°C° 0 mm 0 mps 735 mmHg 52%
    11:00 +31°C° 0 mm 1 mps 734 mmHg 50%
    12:00 +32°C° 0 mm 1 mps 734 mmHg 48%
    13:00 +33°C° 0 mm 1 mps 734 mmHg 45%
    14:00 +33°C° 0 mm 1 mps 734 mmHg 46%
    15:00 +33°C° 0 mm 1 mps 733 mmHg 47%
    16:00 +33°C° 0 mm 1 mps 733 mmHg 48%
    17:00 +30°C° 0 mm 1 mps 733 mmHg 57%
    18:00 +26°C° 0 mm 0 mps 733 mmHg 65%
    19:00 +23°C° 0 mm 0 mps 733 mmHg 74%
    20:00 +23°C° 0 mm 0 mps 733 mmHg 75%
    21:00 +24°C° 0 mm 1 mps 733 mmHg 76%
    22:00 +24°C° 0 mm 1 mps 734 mmHg 77%
    23:00 +23°C° 0 mm 1 mps 734 mmHg 77%
    Mostrar más